Regional Weather Roundup
Issued by NWS Upton, NY

Current Version | Previous Version | Graphics & Text | Print | Product List | Glossary Off
Versions: 1 2 3 4 5 6 7 8 9 10 11 12 13 14 15 16 17 18 19 20 21 22 23 24 25 26 27 28 29 30 31 32 33 34 35 36 37 38 39 40 41 42 43 44 45 46 47 48 49 50

000
ASUS41 KOKX 250408
RWROKX

REGIONAL WEATHER ROUNDUP
NATIONAL WEATHER SERVICE NEW YORK NY
1100 PM EST FRI FEB 24 2017

NOTE: "FAIR" INDICATES FEW OR NO CLOUDS BELOW 12,000 FEET WITH NO
SIGNIFICANT WEATHER AND/OR OBSTRUCTIONS TO VISIBILITY.

NYZ071-072-176-178-NJZ106-104-250500-
NEW YORK CITY METRO AREA

CITY           SKY/WX    TMP DP  RH WIND       PRES   REMARKS
Central Park   MOCLDY    61  56  83 VRB5      29.88S
Wall St Helipt NOT AVBL
LaGuardia APRT MOCLDY    56  53  90 S6        29.87R
Kennedy INTL   FOG       50  50 100 S10       29.89R VSB 1/4
Breezy Point     N/A     45 N/A N/A S8          N/A
Newark/Liberty MOCLDY    60  57  89 S7        29.86R
Teterboro      CLOUDY    59  56  89 SW5       29.85R
$$

NYZ177-179-078>081-250500-
LONG ISLAND NEW YORK

CITY           SKY/WX    TMP DP  RH WIND       PRES   REMARKS
Jones Beach      N/A     46 N/A N/A W2          N/A
Matinecock PT    N/A     55 N/A N/A S6G12       N/A
Farmingdale    FOG       50  50 100 S7        29.89R VSB 1/2
MacArthur/ISP  CLOUDY    53  53 100 SW7       29.88S
Shirley        CLOUDY    53  53 100 SW7       29.89S
Westhampton    CLOUDY    53  52  96 S8        29.90F
Southampton    NOT AVBL
Bridgehampton  NOT AVBL
East Hampton   CLOUDY    53  52  97 S7        29.89F
Montauk          N/A     54  54 100 S9G16     29.91F
$$

NYZ052-065-067-250500-
HUDSON VALLEY

CITY           SKY/WX    TMP DP  RH WIND       PRES   REMARKS
White Plains   FOG       56  55  97 S6        29.86S VSB 1/4
Newburgh       CLEAR     61  57  88 S7        29.84S
Montgomery     MOCLDY    57  52  83 S5        29.81S
Poughkeepsie   CLEAR     60  54  80 S6        29.82S
Albany         MOCLDY    61  51  70 S13       29.77F
$$

NJZ001-105-106-008-010-013-015-019>022-104-250500-
NEW JERSEY

CITY           SKY/WX    TMP DP  RH WIND       PRES   REMARKS
Newark/Liberty MOCLDY    60  57  89 S7        29.86R
Teterboro      CLOUDY    59  56  89 SW5       29.85R
Caldwell       CLOUDY    63  57  81 SW9       29.85S
Somerville     CLOUDY    62  57  83 S5        29.83S
Linden         NOT AVBL
Sussex         MOCLDY    62  56  80 S6        29.83R
Andover          N/A     60  55  83 VRB6      29.83S
Trenton        MOCLDY    58  57  97 S5        29.84F
Millville      CLEAR     56  55  97 VRB3      29.85S
Atlantic City  CLEAR     57  54  89 S8        29.86F
Wrightstown    CLEAR     56  55  95 S5        29.83F
Toms River     CLEAR     55  54  96 CALM      29.87S
Belmar         FOG       54  53  97 CALM      29.88S VSB 1/4
$$

PAZ047>061-062-071-250500-
EASTERN PENNSYLVANIA

CITY           SKY/WX    TMP DP  RH WIND       PRES   REMARKS
Philadelphia   PTCLDY    59  56  89 S8        29.84F
Allentown      MOCLDY    63  55  75 S13       29.82S
Scranton       PTCLDY    63  54  72 S10G21    29.77F
$$

CTZ002-004>006-009-010-012-RIZ004-006-007-MAZ004-011-015-250500-
SOUTHERN NEW ENGLAND
 IN CT

CITY           SKY/WX    TMP DP  RH WIND       PRES   REMARKS
Bradley INTL   CLOUDY    57  54  89 S10       29.87R
Hartford       CLOUDY    56  53  90 S7        29.87S
Danbury        CLOUDY    59  56  89 S13G18    29.87R
Wtrbury/Oxford CLOUDY    55  52  88 S7        29.88S VSB 3/4
Bridgeport     CLOUDY    53  51  93 CALM      29.88S FOG
Meriden        CLOUDY    55  51  86 S5        29.88S
New Haven      CLOUDY    51  50  96 CALM      29.88S FOG
Chester        FOG       54  54 100 S6        29.89S VSB 1/4
Groton         FOG       46  46 100 CALM      29.89F VSB 1/4
Wilimantic     CLOUDY    57  54  89 S5        29.89S

 IN RI

CITY           SKY/WX    TMP DP  RH WIND       PRES   REMARKS
Providence     CLOUDY    49  47  93 SE7       29.90F FOG
Block Island   CLOUDY    50  50 100 S15       29.91F FOG
Westerly       FOG       50  48  93 CALM      29.91S VSB 1/4
 IN MA

CITY           SKY/WX    TMP DP  RH WIND       PRES   REMARKS
Boston         PTCLDY    52  51  97 S10       29.87F
Worcester      CLOUDY    56  53  90 SW14      29.86F
Westfield      CLOUDY    56  54  93 S8        29.85S
Provincetown   FOG       49  48  97 S15G21    29.91S VSB 1/4
Nantucket      FOG       49  47  93 S10       29.94S VSB 1
$$

ANZ330-335-338-340-345-350-353-355-250500-
COASTAL MARINE OBSERVATIONS


STATION/POSITION TIME  SKY/WX   TEMP    WIND        PRES    VSBY  WAVE
                                AIR SEA DIR/SP/G                  HT/PER
                 (UTC)          (F)     (DEG/KT/KT) (MB)    (MI)  (FT/S)
NY HARB ENTRANCE 0250            46 44  190/  8/ 10 1011.2          3/11
20 S FIRE ISLAND 0350            49 44  170/ 10/ 12 1011.6          3/10
GREAT SOUTH BAY  NOT AVBL
23 SSW MONTAUK P 0250            49 44              1013.1          3/10
15 E BARNEGAT LI 0330               44                N/A           4/10
HUDSON CANYON    0250               47              1012.7          4/10
KINGS POINT      0348            50 41              1011.1
EXECUTION ROCKS  NOT AVBL
CENTRAL LI SOUND 0330            46     170/  8/ 10   N/A           1
EASTERN LI SOUND NOT AVBL
ROBBINS REEF     0348            49     160/ 10/ 10 1011.4
$$


>>>>>>>>>>>>>>>>>>>>>>>>>>>> KEY <<<<<<<<<<<<<<<<<<<<<<<<<<<
>                                                          <
>     SKY/WX - Sky Condition/Present Weather               <
>     TMP    - Temperature in Fahrenheit                   <
>     DP     - Dew Point in Fahrenheit                     <
>     RH     - Relative Humidity in Percent                <
>     WIND   - Direction (from) and Speed in MPH           <
>     PRES   - Mean Sea Level Pressure (inches of Hg)      <
>     WCI    - Wind Chill Index                            <
>     VSB    - VISIBILITY IN MILES                         <
>     HX     - HEAT INDEX                                  <
>     TC     - TEMPERATURE IN CELSIUS                      <
>     VRB    - VARIABLE WIND DIRECTION                     <
>                                                          <
>>>>>>>>>>>>>>>>>>>>>>>>>>>> KEY <<<<<<<<<<<<<<<<<<<<<<<<<<<



USA.gov is the U.S. government's official web portal to all federal, state and local government web resources and services.